Zurück zum Katalog

SL-14 DEB

AktivPO
NORAD 19174·DEBRIS·🇷🇺 Russia

Gestartet Oct 26, 1978 von Plesetsk Cosmodrome

Loading…

Nächste Überflüge (nächste 24 Stunden)

TLE

AktuellSource: Space-Track

Epoche: Sep 14, 2026, 15:54 UTC

1 19174U 78100R   26257.66250083  .00000121  00000-0  10341-2 0  9995
2 19174  81.9091 328.7636 0144522 320.3060 193.9596 12.22328601709644

Verfolge SL-14 DEB in Echtzeit mit AllMySat

Download on the App Store